Location: Sternwarte auf dem Internationalen Platz Vogelsang IP
(50.5721°N, 6.4398°E)
Time: 07:26:34
(UTC+01:00)

Transit 2A Rocket - Visible Passes

Search period start: 07 December 2025 00:00
Search period end: 17 December 2025 00:00
Orbit: 580 x 903 km, 66.7° (Epoch: 06 December)

Date Brightness Start Highest point End Pass type
(mag) Time Alt. Az. Time Alt. Az. Time Alt. Az.
07 Dec 5.4 17:58:36 10° NNW 18:04:35 55° NE 18:10:20 10° ESE visible
07 Dec 6.6 19:41:24 10° NW 19:46:54 38° WSW 19:51:14 15° S visible
08 Dec 5.8 17:13:08 10° NNW 17:18:49 39° NE 17:24:19 10° ESE visible
08 Dec 5.8 18:55:39 10° NW 19:01:36 60° WSW 19:07:16 10° SSE visible
08 Dec 8.1 20:40:47 10° W 20:42:47 12° W 20:44:46 10° WSW visible
09 Dec 5.3 18:10:03 10° NW 18:16:09 90° ENE 18:21:58 10° SE visible
09 Dec 7.6 19:53:36 10° WNW 19:57:49 20° WSW 20:01:55 10° SSW visible
10 Dec 5.3 17:24:31 10° NW 17:30:33 61° NE 17:36:20 10° SE visible
10 Dec 7.0 19:07:26 10° NW 19:12:43 33° WSW 19:17:45 10° S visible
11 Dec 6.1 18:21:37 10° NW 18:27:27 52° WSW 18:33:00 10° SSE visible
12 Dec 5.5 17:35:57 10° NW 17:42:03 81° SW 17:47:49 10° SSE visible
12 Dec 8.0 19:19:51 10° WNW 19:23:34 17° WSW 19:27:11 10° SW visible
13 Dec 7.4 18:33:30 10° NW 18:38:29 28° WSW 18:43:16 10° SSW visible
14 Dec 8.2 07:29:24 10° SE 07:33:04 18° ESE 07:36:54 10° ENE visible
14 Dec 6.5 17:47:35 10° NW 17:53:16 45° WSW 17:58:41 10° S visible
15 Dec 5.7 17:01:53 10° NW 17:07:54 71° WSW 17:13:36 10° SSE visible
15 Dec 8.4 18:46:12 10° WNW 18:49:16 15° WSW 18:52:16 10° SW visible
16 Dec 7.3 07:38:55 10° S 07:43:56 34° ESE 07:49:14 10° NE visible
16 Dec 7.8 17:59:34 10° WNW 18:04:15 24° WSW 18:08:43 10° SSW visible
